Weather History for Laoag, Philippines

Change the Weather History Date:

Tuesday, February 19, 2013

  Actual Average Record
Temperature  
Mean Temperature 78 °F -  
Max Temperature 86 °F - - ()
Min Temperature 69 °F - - ()
Cooling Degree Days 12    
Growing Degree Days 28 (Base 50)    
Moisture  
Dew Point 70 °F    
Average Humidity 79    
Maximum Humidity 100    
Minimum Humidity 62    
Precipitation  
Precipitation 0.00 in - - ()
Sea Level Pressure  
Sea Level Pressure 29.81 in    
Wind  
Wind Speed 5 mph ()    
Max Wind Speed 16 mph    
Max Gust Speed -    
Visibility 6.1 miles    
Events      
T = Trace of Precipitation, MM = Missing Value Source: Averaged Metar Reports

Daily Weather History Graph

Daily Weather History Graph

Search for Another Location

Airport:

Trip Planner

Search our weather history database for the weather conditions in past years. The results will help you decide how hot, cold, wet, or windy it might be!

Date:

Astronomy

Feb. 19, 2013 Rise Set
Actual Time 6:23 AM PHT 6:00 PM PHT
Civil Twilight 6:01 AM PHT 6:22 PM PHT
Nautical Twilight 5:35 AM PHT 6:48 PM PHT
Astronomical Twilight 5:10 AM PHT 7:13 PM PHT
Moon 12:28 PM PHT (2/19) 1:01 AM PHT (2/19)
Length of Visible Light 12h 21m
Length of Day
11h 37m
Waxing Gibbous, 62% of the Moon is Illuminated
Feb 19
Waxing Gibbous
Feb 26
Full
Mar 5
Last Quarter
Mar 12
New
Mar 20
First Quarter

Hourly Weather History & Observations

Time (PHT) Temp. Windchill Dew Point Humidity Pressure Visibility Wind Dir Wind Speed Gust Speed Precip Events Conditions
2:00 AM 73 °F - 71 °F 93% 29.83 in 6 mi East 4.5 mph - -   Scattered Clouds
5:00 AM 72 °F - 71 °F 97% 29.82 in 6 mi East 2.2 mph - -   Scattered Clouds
6:00 AM 35.6 °F 31.7 °F 35.6 °F 100% 29.83 in 6.2 mi ESE 4.6 mph - N/A   Scattered Clouds
7:00 AM 69.8 °F - 69.8 °F 100% 29.83 in 5.0 mi ESE 2.3 mph - N/A   Mostly Cloudy
8:00 AM 72 °F - 70 °F 91% 29.87 in 4 mi East 4.5 mph - -   Haze
8:00 AM 71.6 °F - 69.8 °F 94% 29.86 in 5.0 mi East 4.6 mph - N/A   Mostly Cloudy
9:00 AM 78.8 °F - 69.8 °F 74% 29.86 in 6.2 mi ESE 2.3 mph - N/A   Mostly Cloudy
10:00 AM 82.4 °F - 71.6 °F 70% 29.86 in 6.2 mi West 6.9 mph - N/A   Mostly Cloudy
11:00 AM 83 °F - 74 °F 67% 29.87 in 6 mi WNW 8.9 mph - -   Haze
11:00 AM 84.2 °F - 73.4 °F 70% 29.86 in 6.2 mi WNW 9.2 mph - N/A   Mostly Cloudy
12:00 PM 82.4 °F - 73.4 °F 74% 29.83 in 6.2 mi NW 9.2 mph - N/A   Mostly Cloudy
1:00 PM 84.2 °F - 73.4 °F 70% 29.83 in 6.2 mi NW 9.2 mph - N/A   Mostly Cloudy
2:00 PM 84 °F - 74 °F 65% 29.78 in 7 mi NW 11.2 mph - -   Haze
3:00 PM 86.0 °F - 73.4 °F 66% 29.74 in 6.2 mi NNW 16.1 mph - N/A   Mostly Cloudy
4:00 PM 86.0 °F - 71.6 °F 62% 29.74 in 6.2 mi NW 11.5 mph - N/A   Mostly Cloudy
5:00 PM 83 °F - 74 °F 66% 29.75 in 7 mi NW 4.5 mph - -   Haze
5:00 PM 84.2 °F - 73.4 °F 70% 29.74 in 6.2 mi WNW 4.6 mph - N/A   Mostly Cloudy
6:00 PM 80.6 °F - 75.2 °F 84% 29.74 in 6.2 mi South 4.6 mph - N/A   Mostly Cloudy
8:00 PM 79 °F - 73 °F 76% 29.79 in 7 mi South 2.2 mph - -   Partly Cloudy
11:00 PM 72 °F - 71 °F 97% 29.82 in 7 mi Calm Calm - -   Scattered Clouds